{"data":{"norad_id":28702,"intl_designator":"2005-022A","name":"GALAXY 28 (G-28)","alt_names":[],"object_type":"PAYLOAD","status":"ACTIVE","operator":null,"country":"ITSO","launch_date":"2005-06-23","launch_site_code":"SEAL","launch_vehicle":null,"mission":null,"orbit_class":"UNKNOWN","rcs_meters":16.7962,"size_class":null,"mass_kg":null,"dimensions":null,"purposes":["comms"],"wikipedia_slug":null,"has_3d_model":false,"image_url":null,"decayed_at":null,"tle_current":{"epoch":"2026-09-19T20:15:47.379168Z","epoch_age_seconds":70952,"freshness":"FRESH","line1":"1 28702U 05022A   26262.84429837 -.00000204  00000+0  00000+0 0  9996","line2":"2 28702   3.5360  77.6968 0001785 104.6904  93.2175  1.00270303 52927","mean_motion":1.00270303,"eccentricity":0.0001785,"inclination_deg":3.536,"raan_deg":77.6968,"arg_perigee_deg":104.6904,"mean_anomaly_deg":93.2175,"bstar":0,"rev_number":5292,"period_min":1436.1181296121,"perigee_km":35779.483945891,"apogee_km":35794.536903521,"semimajor_km":42165.147424706,"source":"CELESTRAK","updated_at":"2026-09-20T09:00:35.515663Z"}}}